KPF27 LTFM-LDSP

Flight info

Callsign KPF27
Flight time 1h 35m
Altitude 40000
Route VADEN1E/36 VADEN N618 GOL DCT ROVAM DCT DOLAP DCT KENEM
Aircraft CL60/M-SBDE1E2E3FGHIJ1J4J5J7M3RWXYZ/LB1V1D1

Departure

Time 2026-05-05 16:42
Airport İstanbul Airport (LTFM)

Arrival

Time 2026-05-05 18:18
Airport Split Saint Jerome Airport (LDSP)
Time Latitude Longitude Altitude Speed Heading
2026-05-05 16:20 41.25176 28.75263 333 ft 0 kts 270°
2026-05-05 16:33 41.25176 28.75280 333 ft 2 kts 270°
2026-05-05 16:34 41.25176 28.75300 333 ft 2 kts 270°
2026-05-05 16:34 41.25176 28.75320 333 ft 2 kts 270°
2026-05-05 16:34 41.25176 28.75340 333 ft 2 kts 270°
2026-05-05 16:34 41.25176 28.75360 333 ft 2 kts 270°
2026-05-05 16:35 41.25174 28.75380 333 ft 2 kts 292°
2026-05-05 16:35 41.25166 28.75395 333 ft 2 kts 321°
2026-05-05 16:35 41.25152 28.75404 333 ft 2 kts 349°
2026-05-05 16:35 41.25140 28.75405 333 ft 0 kts 359°
2026-05-05 16:38 41.25204 28.75404 333 ft 20 kts 360°
2026-05-05 16:38 41.25343 28.75401 332 ft 17 kts 359°
2026-05-05 16:39 41.25464 28.75398 333 ft 17 kts 359°
2026-05-05 16:39 41.25589 28.75397 333 ft 18 kts 359°
2026-05-05 16:39 41.25724 28.75394 333 ft 19 kts 359°
2026-05-05 16:39 41.25864 28.75392 332 ft 18 kts 359°
2026-05-05 16:40 41.25991 28.75389 333 ft 18 kts 360°
2026-05-05 16:40 41.26111 28.75387 333 ft 13 kts 359°
2026-05-05 16:40 41.26184 28.75386 332 ft 9 kts 359°
2026-05-05 16:40 41.26228 28.75434 333 ft 9 kts 75°
2026-05-05 16:41 41.26233 28.75535 333 ft 14 kts 89°
2026-05-05 16:41 41.26250 28.75659 333 ft 12 kts 39°
2026-05-05 16:41 41.26342 28.75670 333 ft 23 kts 359°
2026-05-05 16:41 41.26799 28.75664 333 ft 114 kts 359°
2026-05-05 16:42 41.27876 28.75638 534 ft 171 kts
2026-05-05 16:42 41.29065 28.75596 1282 ft 173 kts 360°
2026-05-05 16:42 41.30148 28.75824 2029 ft 144 kts 30°
2026-05-05 16:43 41.30916 28.76476 2775 ft 129 kts 32°
2026-05-05 16:43 41.31665 28.77132 3457 ft 134 kts 30°
2026-05-05 16:43 41.32449 28.77803 4153 ft 139 kts 30°
2026-05-05 16:43 41.33396 28.78585 4228 ft 183 kts 30°
2026-05-05 16:44 41.34567 28.79524 4549 ft 208 kts 29°
2026-05-05 16:44 41.35929 28.80593 5022 ft 242 kts 29°
2026-05-05 16:44 41.37423 28.81744 5614 ft 248 kts 27°
2026-05-05 16:44 41.39028 28.82413 6481 ft 248 kts
2026-05-05 16:45 41.40785 28.82275 7379 ft 256 kts 355°
2026-05-05 16:45 41.42556 28.82046 8250 ft 260 kts 355°
2026-05-05 16:45 41.44367 28.81819 9141 ft 262 kts 355°
2026-05-05 16:45 41.46175 28.81593 10022 ft 265 kts 355°
2026-05-05 16:46 41.48060 28.81359 10716 ft 283 kts 355°
2026-05-05 16:46 41.50141 28.81102 11101 ft 312 kts 355°
2026-05-05 16:46 41.52355 28.80773 11860 ft 327 kts 350°
2026-05-05 16:46 41.54504 28.79697 12764 ft 337 kts 331°
2026-05-05 16:47 41.56254 28.77629 13661 ft 349 kts 310°
2026-05-05 16:47 41.57415 28.74709 14514 ft 361 kts 297°
2026-05-05 16:47 41.58425 28.71608 15384 ft 366 kts 297°
2026-05-05 16:47 41.59449 28.68495 16235 ft 370 kts 297°
2026-05-05 16:48 41.60478 28.65362 17029 ft 375 kts 297°
2026-05-05 16:48 41.61528 28.62166 17806 ft 379 kts 297°
2026-05-05 16:48 41.62595 28.58911 18549 ft 383 kts 297°
2026-05-05 16:48 41.63664 28.55649 19247 ft 388 kts 297°
2026-05-05 16:49 41.64757 28.52311 19928 ft 392 kts 297°
2026-05-05 16:49 41.65852 28.48964 20576 ft 397 kts 297°
2026-05-05 16:49 41.66972 28.45536 21246 ft 401 kts 297°
2026-05-05 16:49 41.68092 28.42104 21880 ft 404 kts 297°
2026-05-05 16:50 41.69231 28.38609 22481 ft 408 kts 297°
2026-05-05 16:50 41.70370 28.35112 23059 ft 412 kts 297°
2026-05-05 16:50 41.71521 28.31574 23601 ft 417 kts 296°
2026-05-05 16:50 41.72683 28.27997 23986 ft 424 kts 296°
2026-05-05 16:51 41.73864 28.24359 24075 ft 428 kts 295°
2026-05-05 16:51 41.75061 28.20661 24073 ft 426 kts 296°
2026-05-05 16:51 41.76236 28.17028 24072 ft 422 kts 296°
2026-05-05 16:51 41.77399 28.13426 24065 ft 420 kts 296°
2026-05-05 16:52 41.78556 28.09838 24071 ft 419 kts 296°
2026-05-05 16:52 41.79711 28.06253 24068 ft 419 kts 296°
2026-05-05 16:52 41.80880 28.02623 24068 ft 419 kts 296°
2026-05-05 16:52 41.82028 27.99052 24067 ft 420 kts 296°
2026-05-05 16:53 41.83177 27.95472 24066 ft 420 kts 296°
2026-05-05 16:53 41.84347 27.91825 24115 ft 428 kts 296°
2026-05-05 16:53 41.85538 27.88110 24597 ft 432 kts 296°
2026-05-05 16:53 41.86712 27.84436 25258 ft 431 kts 296°
2026-05-05 16:54 41.87896 27.80729 25857 ft 432 kts 296°
2026-05-05 16:54 41.89083 27.77008 26357 ft 435 kts 296°
2026-05-05 16:54 41.90277 27.73257 26796 ft 439 kts 296°
2026-05-05 16:54 41.91476 27.69489 27211 ft 442 kts 296°
2026-05-05 16:55 41.92696 27.65649 27635 ft 444 kts 296°
2026-05-05 16:55 41.93910 27.61822 28037 ft 447 kts 296°
2026-05-05 16:55 41.95129 27.57973 28429 ft 449 kts 296°
2026-05-05 16:55 41.96354 27.54099 28800 ft 452 kts 296°
2026-05-05 16:56 41.97588 27.50190 29161 ft 454 kts 296°
2026-05-05 16:56 41.98815 27.46298 29513 ft 455 kts 296°
2026-05-05 16:56 42.00059 27.42348 29887 ft 456 kts 296°
2026-05-05 16:56 42.01293 27.38421 30315 ft 455 kts 296°
2026-05-05 16:57 42.02513 27.34532 30758 ft 453 kts 295°
2026-05-05 16:57 42.03739 27.30618 31199 ft 451 kts 295°
2026-05-05 16:57 42.04951 27.26745 31642 ft 448 kts 295°
2026-05-05 16:57 42.06237 27.22907 32045 ft 444 kts 301°
2026-05-05 16:58 42.07881 27.19451 32423 ft 438 kts 310°
2026-05-05 16:58 42.09871 27.16357 32776 ft 434 kts 315°
2026-05-05 16:58 42.11904 27.13350 33074 ft 434 kts 315°
2026-05-05 16:58 42.13929 27.10338 33387 ft 433 kts 314°
2026-05-05 16:59 42.15956 27.07316 33710 ft 432 kts 314°
2026-05-05 16:59 42.17941 27.04350 34030 ft 430 kts 314°
2026-05-05 16:59 42.19966 27.01317 34338 ft 429 kts 314°
2026-05-05 16:59 42.21936 26.98360 34565 ft 428 kts 314°
2026-05-05 17:00 42.23930 26.95362 34853 ft 426 kts 314°
2026-05-05 17:00 42.25921 26.92366 35076 ft 427 kts 314°
2026-05-05 17:00 42.27906 26.89373 35291 ft 427 kts 314°
2026-05-05 17:00 42.29890 26.86376 35514 ft 426 kts 314°
2026-05-05 17:01 42.31853 26.83406 35727 ft 425 kts 314°
2026-05-05 17:01 42.33743 26.80312 35937 ft 427 kts 308°
2026-05-05 17:01 42.35342 26.76895 36151 ft 429 kts 301°
2026-05-05 17:01 42.36585 26.73247 36379 ft 431 kts 294°
2026-05-05 17:02 42.37646 26.69418 36610 ft 431 kts 293°
2026-05-05 17:02 42.38695 26.65601 36873 ft 431 kts 294°
2026-05-05 17:02 42.39734 26.61821 37138 ft 430 kts 293°
2026-05-05 17:02 42.40777 26.58020 37382 ft 429 kts 294°
2026-05-05 17:03 42.41805 26.54267 37641 ft 427 kts 293°
2026-05-05 17:03 42.42847 26.50460 37844 ft 427 kts 293°
2026-05-05 17:03 42.43869 26.46721 38037 ft 427 kts 293°
2026-05-05 17:03 42.44897 26.42952 38196 ft 427 kts 293°
2026-05-05 17:04 42.45930 26.39160 38316 ft 427 kts 293°
2026-05-05 17:04 42.46963 26.35363 38457 ft 427 kts 293°
2026-05-05 17:04 42.47985 26.31600 38596 ft 427 kts 292°
2026-05-05 17:04 42.49014 26.27806 38733 ft 427 kts 292°
2026-05-05 17:05 42.50039 26.24022 38863 ft 426 kts 292°
2026-05-05 17:05 42.51055 26.20261 38994 ft 426 kts 292°
2026-05-05 17:05 42.53095 26.12700 39214 ft 426 kts 292°
2026-05-05 17:06 42.55119 26.05170 39451 ft 425 kts 292°
2026-05-05 17:06 42.57146 25.97612 39595 ft 426 kts 292°
2026-05-05 17:07 42.59167 25.90049 39713 ft 427 kts 292°
2026-05-05 17:07 42.61193 25.82443 39835 ft 427 kts 292°
2026-05-05 17:08 42.63202 25.74877 39987 ft 426 kts 292°
2026-05-05 17:08 42.65205 25.67313 40060 ft 427 kts 292°
2026-05-05 17:09 42.67217 25.59691 40065 ft 430 kts 292°
2026-05-05 17:09 42.69234 25.52024 40062 ft 432 kts 292°
2026-05-05 17:10 42.71250 25.44338 40077 ft 433 kts 292°
2026-05-05 17:10 42.72940 25.37872 40071 ft 435 kts 292°
2026-05-05 17:11 42.75304 25.28804 40073 ft 436 kts 291°
2026-05-05 17:11 42.77336 25.20980 40073 ft 437 kts 292°
2026-05-05 17:12 42.79355 25.13180 40074 ft 437 kts 292°
2026-05-05 17:12 42.81364 25.05392 40084 ft 437 kts 292°
2026-05-05 17:13 42.83038 24.98883 40078 ft 436 kts 292°
2026-05-05 17:13 42.85370 24.89786 40073 ft 436 kts 291°
2026-05-05 17:14 42.87033 24.83282 40074 ft 435 kts 292°
2026-05-05 17:14 42.89011 24.75514 40087 ft 434 kts 292°
2026-05-05 17:15 42.90984 24.67745 40075 ft 434 kts 292°
2026-05-05 17:15 42.93282 24.58665 40064 ft 434 kts 292°
2026-05-05 17:16 42.94918 24.52175 40053 ft 434 kts 292°
2026-05-05 17:16 42.96880 24.44371 40050 ft 434 kts 292°
2026-05-05 17:17 42.98830 24.36585 40042 ft 434 kts 291°
2026-05-05 17:17 43.01112 24.27446 40048 ft 433 kts 291°
2026-05-05 17:18 43.02732 24.20935 40046 ft 434 kts 291°
2026-05-05 17:18 43.04671 24.13119 40039 ft 434 kts 291°
2026-05-05 17:19 43.06602 24.05306 40035 ft 434 kts 291°
2026-05-05 17:19 43.08843 23.96209 40034 ft 434 kts 291°
2026-05-05 17:20 43.10439 23.89703 40028 ft 433 kts 291°
2026-05-05 17:20 43.12362 23.81842 40026 ft 432 kts 291°
2026-05-05 17:21 43.14263 23.74046 40015 ft 432 kts 291°
2026-05-05 17:22 43.17109 23.62326 40025 ft 431 kts 291°
2026-05-05 17:22 43.18999 23.54511 40019 ft 432 kts 291°
2026-05-05 17:23 43.20880 23.46707 40023 ft 432 kts 291°
2026-05-05 17:23 43.22760 23.38874 40026 ft 431 kts 291°
2026-05-05 17:24 43.24629 23.31065 40011 ft 431 kts 290°
2026-05-05 17:24 43.26493 23.23249 40027 ft 430 kts 290°
2026-05-05 17:25 43.28344 23.15458 40047 ft 429 kts 290°
2026-05-05 17:25 43.30188 23.07672 40046 ft 429 kts 290°
2026-05-05 17:26 43.32026 22.99888 40086 ft 429 kts 290°
2026-05-05 17:26 43.33861 22.92086 40064 ft 429 kts 290°
2026-05-05 17:27 43.35688 22.84292 40055 ft 429 kts 290°
2026-05-05 17:27 43.37385 22.76372 40059 ft 430 kts 283°
2026-05-05 17:28 43.38037 22.68151 40060 ft 431 kts 278°
2026-05-05 17:28 43.38603 22.59955 40038 ft 432 kts 278°
2026-05-05 17:29 43.39163 22.51753 40058 ft 431 kts 278°
2026-05-05 17:29 43.39720 22.43510 40044 ft 431 kts 278°
2026-05-05 17:30 43.40270 22.35284 40028 ft 431 kts 278°
2026-05-05 17:30 43.40812 22.27081 40017 ft 431 kts 278°
2026-05-05 17:31 43.41349 22.18871 40013 ft 430 kts 278°
2026-05-05 17:31 43.41878 22.10682 40014 ft 430 kts 277°
2026-05-05 17:32 43.42401 22.02505 40012 ft 429 kts 278°
2026-05-05 17:32 43.42919 21.94305 40017 ft 429 kts 277°
2026-05-05 17:33 43.43431 21.86123 40003 ft 430 kts 277°
2026-05-05 17:33 43.43936 21.77947 40003 ft 429 kts 277°
2026-05-05 17:34 43.44434 21.69787 40001 ft 428 kts 277°
2026-05-05 17:34 43.44926 21.61626 40004 ft 428 kts 277°
2026-05-05 17:35 43.45414 21.53446 40005 ft 428 kts 277°
2026-05-05 17:35 43.45893 21.45312 40005 ft 428 kts 277°
2026-05-05 17:36 43.46370 21.37124 40000 ft 428 kts 277°
2026-05-05 17:36 43.46841 21.28924 40000 ft 428 kts 277°
2026-05-05 17:37 43.47304 21.20746 40004 ft 427 kts 277°
2026-05-05 17:37 43.47757 21.12666 40017 ft 426 kts 277°
2026-05-05 17:38 43.48206 21.04533 40025 ft 426 kts 277°
2026-05-05 17:38 43.48651 20.96381 40035 ft 426 kts 277°
2026-05-05 17:39 43.49091 20.88206 40038 ft 427 kts 277°
2026-05-05 17:39 43.49524 20.80070 40046 ft 427 kts 277°
2026-05-05 17:40 43.49951 20.71909 40044 ft 426 kts 276°
2026-05-05 17:40 43.50373 20.63751 40044 ft 425 kts 276°
2026-05-05 17:41 43.50787 20.55624 40038 ft 424 kts 276°
2026-05-05 17:41 43.51192 20.47559 40049 ft 422 kts 276°
2026-05-05 17:42 43.51592 20.39488 40038 ft 422 kts 276°
2026-05-05 17:42 43.51987 20.31407 40040 ft 422 kts 276°
2026-05-05 17:43 43.52375 20.23330 40039 ft 423 kts 276°
2026-05-05 17:43 43.52760 20.15228 40051 ft 423 kts 276°
2026-05-05 17:44 43.53137 20.07144 40061 ft 423 kts 276°
2026-05-05 17:44 43.53508 19.99091 40063 ft 422 kts 276°
2026-05-05 17:45 43.53875 19.91029 40065 ft 422 kts 276°
2026-05-05 17:45 43.54236 19.82963 40068 ft 421 kts 275°
2026-05-05 17:46 43.54589 19.74938 40071 ft 419 kts 276°
2026-05-05 17:46 43.54937 19.66894 40067 ft 418 kts 276°
2026-05-05 17:47 43.55278 19.58859 40066 ft 418 kts 276°
2026-05-05 17:47 43.55611 19.50916 40066 ft 417 kts 275°
2026-05-05 17:48 43.55940 19.42884 40065 ft 417 kts 275°
2026-05-05 17:48 43.56263 19.34880 40074 ft 417 kts 275°
2026-05-05 17:49 43.56579 19.26906 40078 ft 417 kts 275°
2026-05-05 17:49 43.56891 19.18885 40076 ft 417 kts 275°
2026-05-05 17:50 43.57196 19.10891 40080 ft 416 kts 275°
2026-05-05 17:50 43.57494 19.02953 40086 ft 415 kts 275°
2026-05-05 17:51 43.57786 18.95024 40085 ft 415 kts 275°
2026-05-05 17:51 43.58073 18.87062 40083 ft 415 kts 275°
2026-05-05 17:52 43.58355 18.79095 40081 ft 415 kts 275°
2026-05-05 17:52 43.58632 18.71123 40075 ft 415 kts 275°
2026-05-05 17:53 43.58901 18.63189 40072 ft 414 kts 275°
2026-05-05 17:53 43.59164 18.55298 40069 ft 412 kts 275°
2026-05-05 17:54 43.59421 18.47413 40075 ft 412 kts 274°
2026-05-05 17:54 43.59675 18.39466 39647 ft 419 kts 274°
2026-05-05 17:54 43.59800 18.35486 39051 ft 415 kts 274°
2026-05-05 17:55 43.59923 18.31502 38470 ft 410 kts 274°
2026-05-05 17:55 43.60042 18.27611 37919 ft 406 kts 274°
2026-05-05 17:55 43.60159 18.23745 37391 ft 406 kts 274°
2026-05-05 17:55 43.60278 18.19803 36866 ft 406 kts 274°
2026-05-05 17:56 43.60393 18.15911 36391 ft 406 kts 274°
2026-05-05 17:56 43.60508 18.12020 35962 ft 408 kts 274°
2026-05-05 17:56 43.60620 18.08150 35446 ft 409 kts 274°
2026-05-05 17:56 43.60733 18.04196 34895 ft 409 kts 274°
2026-05-05 17:57 43.60844 18.00284 34363 ft 409 kts 274°
2026-05-05 17:57 43.60954 17.96377 33812 ft 409 kts 274°
2026-05-05 17:57 43.61063 17.92413 33267 ft 411 kts 274°
2026-05-05 17:57 43.61171 17.88487 32727 ft 413 kts 273°
2026-05-05 17:58 43.61279 17.84488 32167 ft 414 kts 273°
2026-05-05 17:58 43.61384 17.80529 31610 ft 417 kts 273°
2026-05-05 17:58 43.61489 17.76494 31057 ft 418 kts 273°
2026-05-05 17:58 43.61594 17.72478 30496 ft 420 kts 273°
2026-05-05 17:59 43.61696 17.68476 29938 ft 421 kts 273°
2026-05-05 17:59 43.61798 17.64408 29380 ft 424 kts 273°
2026-05-05 17:59 43.61900 17.60327 28823 ft 424 kts 273°
2026-05-05 17:59 43.61999 17.56264 28252 ft 422 kts 273°
2026-05-05 18:00 43.62096 17.52228 27695 ft 418 kts 272°
2026-05-05 18:00 43.62190 17.48245 27143 ft 415 kts 272°
2026-05-05 18:00 43.62282 17.44305 26595 ft 412 kts 272°
2026-05-05 18:00 43.62374 17.40342 26041 ft 410 kts 272°
2026-05-05 18:01 43.62463 17.36408 25493 ft 407 kts 272°
2026-05-05 18:01 43.62550 17.32495 24956 ft 405 kts 272°
2026-05-05 18:01 43.62636 17.28599 24408 ft 403 kts 272°
2026-05-05 18:01 43.62719 17.24763 23882 ft 400 kts 272°
2026-05-05 18:02 43.62801 17.20933 23348 ft 397 kts 272°
2026-05-05 18:02 43.62881 17.17128 22822 ft 394 kts 272°
2026-05-05 18:02 43.62958 17.13372 22298 ft 391 kts 272°
2026-05-05 18:02 43.63034 17.09649 21785 ft 388 kts 272°
2026-05-05 18:03 43.63108 17.05944 21268 ft 385 kts 272°
2026-05-05 18:03 43.63167 17.02281 20767 ft 382 kts 270°
2026-05-05 18:03 43.62799 16.98655 20212 ft 381 kts 255°
2026-05-05 18:03 43.61733 16.95307 19664 ft 380 kts 240°
2026-05-05 18:04 43.60031 16.92463 19074 ft 383 kts 225°
2026-05-05 18:04 43.57845 16.90346 18462 ft 383 kts 213°
2026-05-05 18:04 43.55545 16.88564 18000 ft 380 kts 212°
2026-05-05 18:04 43.53228 16.86756 17492 ft 380 kts 212°
2026-05-05 18:05 43.50921 16.84956 16973 ft 377 kts 212°
2026-05-05 18:05 43.48665 16.83198 16497 ft 375 kts 212°
2026-05-05 18:05 43.46369 16.81409 15974 ft 373 kts 212°
2026-05-05 18:05 43.44141 16.79675 15495 ft 370 kts 212°
2026-05-05 18:06 43.41893 16.77926 14996 ft 367 kts 212°
2026-05-05 18:06 43.40410 16.76772 14665 ft 365 kts 212°
2026-05-05 18:06 43.37475 16.74492 14028 ft 359 kts 212°
2026-05-05 18:06 43.35407 16.72648 13538 ft 350 kts 223°
2026-05-05 18:07 43.33843 16.70156 13027 ft 339 kts 240°
2026-05-05 18:07 43.32933 16.67264 12531 ft 330 kts 256°
2026-05-05 18:07 43.32599 16.64174 12024 ft 324 kts 267°
2026-05-05 18:07 43.32471 16.61122 11617 ft 316 kts 268°
2026-05-05 18:08 43.32339 16.58125 11205 ft 310 kts 268°
2026-05-05 18:08 43.32209 16.55201 10778 ft 305 kts 268°
2026-05-05 18:08 43.32081 16.52328 10363 ft 300 kts 268°
2026-05-05 18:08 43.31953 16.49470 9944 ft 296 kts 268°
2026-05-05 18:09 43.31827 16.46659 9559 ft 291 kts 268°
2026-05-05 18:09 43.31702 16.43892 9166 ft 287 kts 267°
2026-05-05 18:09 43.31578 16.41174 8791 ft 283 kts 267°
2026-05-05 18:09 43.31456 16.38489 8421 ft 278 kts 267°
2026-05-05 18:10 43.31337 16.35870 8061 ft 274 kts 267°
2026-05-05 18:10 43.31216 16.33249 7682 ft 271 kts 266°
2026-05-05 18:10 43.31098 16.30684 7326 ft 267 kts 266°
2026-05-05 18:10 43.30981 16.28169 6973 ft 266 kts 266°
2026-05-05 18:11 43.30862 16.25616 6619 ft 266 kts 266°
2026-05-05 18:11 43.30743 16.23072 6269 ft 266 kts 266°
2026-05-05 18:11 43.30624 16.20531 5903 ft 266 kts 265°
2026-05-05 18:11 43.30506 16.18012 5552 ft 266 kts 265°
2026-05-05 18:12 43.30576 16.15474 5195 ft 267 kts 281°
2026-05-05 18:12 43.31332 16.13161 4813 ft 270 kts 306°
2026-05-05 18:12 43.32704 16.11400 4430 ft 272 kts 321°
2026-05-05 18:12 43.34217 16.09819 4038 ft 272 kts 321°
2026-05-05 18:13 43.35724 16.08236 3692 ft 273 kts 323°
2026-05-05 18:13 43.37416 16.06965 3299 ft 276 kts 338°
2026-05-05 18:13 43.39266 16.06493 2922 ft 272 kts
2026-05-05 18:13 43.41002 16.07277 2789 ft 255 kts 37°
2026-05-05 18:14 43.42186 16.08936 2789 ft 232 kts 56°
2026-05-05 18:14 43.43152 16.10629 2795 ft 220 kts 55°
2026-05-05 18:14 43.44108 16.12287 2791 ft 221 kts 56°
2026-05-05 18:14 43.45059 16.13976 2620 ft 222 kts 56°
2026-05-05 18:15 43.45989 16.15632 2334 ft 211 kts 56°
2026-05-05 18:15 43.46861 16.17187 2074 ft 201 kts 56°
2026-05-05 18:15 43.47681 16.18650 1785 ft 184 kts 56°
2026-05-05 18:15 43.48437 16.19999 1587 ft 171 kts 57°
2026-05-05 18:16 43.49145 16.21271 1385 ft 161 kts 56°
2026-05-05 18:16 43.49800 16.22442 1170 ft 147 kts 56°
2026-05-05 18:16 43.50419 16.23552 968 ft 143 kts 56°
2026-05-05 18:16 43.51013 16.24621 785 ft 140 kts 55°
2026-05-05 18:17 43.51614 16.25690 582 ft 140 kts 54°
2026-05-05 18:17 43.52208 16.26768 426 ft 142 kts 55°
2026-05-05 18:17 43.52809 16.27853 245 ft 140 kts 53°
2026-05-05 18:17 43.53377 16.28871 71 ft 127 kts 52°
2026-05-05 18:18 43.53847 16.29715 60 ft 86 kts 52°
2026-05-05 18:18 43.54022 16.30028 58 ft 15 kts 53°
2026-05-05 18:18 43.54031 16.30099 58 ft 7 kts 170°
2026-05-05 18:18 43.53959 16.30076 58 ft 11 kts 194°
2026-05-05 18:19 43.53899 16.30039 58 ft 6 kts 218°
2026-05-05 18:19 43.53859 16.29973 58 ft 12 kts 233°
2026-05-05 18:19 43.53796 16.29862 58 ft 17 kts 233°
2026-05-05 18:19 43.53728 16.29736 58 ft 9 kts 232°
2026-05-05 18:20 43.53679 16.29650 59 ft 12 kts 232°
2026-05-05 18:20 43.53635 16.29585 59 ft 6 kts 189°
2026-05-05 18:20 43.53573 16.29635 58 ft 14 kts 143°
2026-05-05 18:20 43.53546 16.29684 57 ft 4 kts 78°
2026-05-05 18:21 43.53544 16.29729 56 ft 2 kts 105°
2026-05-05 18:21 43.53543 16.29735 56 ft 0 kts 105°